Location: ?????
(55.8063°N, 38.0387°E)
Time: 23:53:23
(UTC+00:00)

Daily predictions for brighter satellites

Satellite Brightness Start Highest point End
(mag) Time Altitude Azimuth Time Altitude Azimuth Time Altitude Azimuth
NOSS 3-1 (C) 3.7 16:00:59 10° WSW 16:06:45 77° NW 16:13:42 10° NE
Iridium 4 Rocket 3.5 16:05:22 10° S 16:10:21 72° E 16:15:52 10° N
Sich 1 Rocket 4.3 16:10:01 10° SSE 16:14:04 33° E 16:18:10 10° NNE
Cosmos 1743 3.0 16:10:23 10° SSW 16:14:13 72° WNW 16:18:04 10° N
SJ-6B 3.5 16:12:14 10° SE 16:15:36 32° ENE 16:18:59 10° N
NOSS 2-3 (E) 3.9 16:11:40 10° SW 16:16:09 87° NW 16:21:48 10° NE
Cosmos 2263 Rocket 2.5 16:11:03 10° S 16:16:19 45° ESE 16:21:37 10° NE
ATLAS CENTAUR R/B 2.0 16:14:55 10° WSW 16:18:43 52° NW 16:22:23 10° NE
Meteor 2-9 Rocket 4.4 16:13:33 10° S 16:19:18 60° E 16:24:59 10° NNE
Cosmos 1464 Rocket 4.4 16:17:57 10° SSE 16:23:33 39° E 16:29:13 10° NNE
Cosmos 1844 Rocket 4.1 16:21:21 10° SE 16:24:22 15° E 16:27:23 10° ENE
SL-08 RB Rocket 3.8 16:20:16 10° SSE 16:24:46 58° ENE 16:29:16 10° N
CZ-2C R/B 3.5 16:19:38 10° S 16:24:55 72° WSW 16:30:32 10° NNW
Cosmos 2227 4.3 16:20:01 10° SSW 16:25:36 55° ESE 16:31:11 10° NE
ARIANE 5 R/B 4.4 16:23:01 10° E 16:25:38 16° NE 16:28:14 10° NNE
Cosmos 1943 4.0 16:20:57 10° NW 16:26:29 56° WSW 16:31:59 10° SSE
Cosmos 990 Rocket 3.9 16:21:49 10° SSW 16:26:54 65° ESE 16:32:02 10° NNE
SJ 16-02 1.5 16:25:15 10° SSW 16:29:39 79° WNW 16:34:04 10° NNE
NOSS 3-2 (A) 4.0 16:23:18 10° NW 16:30:27 87° NE 16:38:42 10° SE
IRS-1A Rocket 4.5 16:24:46 10° SE 16:30:36 64° ENE 16:36:23 10° NNW
Okean 2 Rocket 3.7 16:30:20 10° SSE 16:34:24 34° E 16:38:28 10° NNE
Ariane Rocket 3.0 16:32:23 10° SSE 16:37:24 67° ENE 16:42:29 10° NNW
Abrixas rocket 3.9 16:36:44 10° SSW 16:38:37 16° SSE 16:39:58 12° SE
Lacrosse 5 rocket 1.5 16:34:56 10° WSW 16:39:12 75° SSE 16:43:43 10° ENE
Cosmos 1833 Rocket 4.0 16:34:58 10° NNW 16:39:51 28° NNE 16:44:24 11° E
Cosmos 494 Rocket 4.4 16:35:48 10° NNW 16:40:54 47° NE 16:45:32 12° SE
Cosmos 2227 Rocket 3.7 16:36:56 10° WSW 16:42:12 38° NW 16:47:29 10° NNE
NOSS 2-3 (D) 4.2 16:37:55 10° WSW 16:42:26 71° NNW 16:48:08 10° NE
USA 116 3.5 16:40:23 10° NNE 16:43:41 81° WNW 16:47:16 10° SSW
Cosmos 1437 4.4 16:41:26 10° NNW 16:44:14 34° W 16:46:59 10° SSW
Resurs 1-3 4.1 16:43:10 10° SE 16:47:12 41° ENE 16:51:21 10° N
SPOT 3 Rocket 4.0 16:42:22 10° SE 16:47:14 44° ENE 16:52:07 10° N
Cosmos 1300 Rocket 3.9 16:43:48 10° SSE 16:47:57 43° E 16:52:10 10° NNE
MetOp-A 4.2 16:42:48 10° SSE 16:48:06 66° ENE 16:53:26 10° NNW
Cosmos 1891 Rocket 4.5 16:45:10 10° S 16:51:10 60° E 16:57:08 10° NNE
Cosmos 1867 4.3 16:46:15 10° NW 16:51:32 51° SW 16:56:48 10° SSE
USA 234 4.3 16:47:40 10° ENE 16:52:39 23° SE 16:57:36 10° S
Cosmos 1898 Rocket 3.5 16:48:36 10° SSW 16:53:47 90° WNW 16:59:02 10° NNE
Cosmos 1536 Rocket 3.5 16:54:41 10° N 16:59:08 70° ENE 17:03:34 10° SSE
Meteor 2-5 Rocket 4.1 16:55:50 10° N 17:01:13 45° ENE 17:05:36 16° SE
DMSP B5D2-2 4.4 16:58:20 10° NNE 17:03:26 45° E 17:08:29 10° S
Terra 3.9 17:01:26 11° ENE 17:03:31 14° NE 17:05:48 10° NNE
USA 229 DEB 4.3 16:57:52 10° WSW 17:04:27 60° NNW 17:11:33 10° NE
NOSS 3-2 (C) 4.0 16:57:20 10° NW 17:04:31 88° NE 17:11:17 16° SE
USA 229 4.3 16:57:57 10° WSW 17:04:34 60° NNW 17:11:38 10° NE
Cosmos 858 Rocket 4.5 17:01:50 10° SSW 17:07:04 87° ESE 17:12:20 10° NNE
Cosmos 1626 3.2 17:04:19 10° N 17:07:33 27° ENE 17:08:46 23° E
Exosat Rocket 4.5 17:04:22 10° SSE 17:08:40 25° ESE 17:12:42 10° NE
Nadezhda 4 Rocket 3.9 17:06:06 10° N 17:12:18 85° ENE 17:18:25 10° SSE
Cosmos 372 Rocket 4.0 17:08:09 10° S 17:13:16 56° ESE 17:18:23 10° NE
Cosmos 1025 Rocket 3.3 17:09:02 10° NNW 17:13:24 71° W 17:17:46 10° S
Cosmos 1072 Rocket 4.5 17:07:48 10° S 17:14:04 84° E 17:20:29 10° NNE
Cosmos 1782 Rocket 4.5 17:09:52 10° SSW 17:14:12 52° WNW 17:18:35 10° N
Cosmos 2150 Rocket 4.4 17:10:13 10° S 17:15:13 41° ESE 17:20:19 10° NE
CREW DRAGON DEMO-1 DEB 3.6 17:12:27 10° WSW 17:15:17 36° S 17:16:06 29° SSE
Cosmos 2151 Rocket 3.6 17:11:06 10° S 17:15:28 58° E 17:19:56 10° NNE
NOSS 3-1 (A) 4.1 17:10:41 10° WSW 17:16:32 60° NNW 17:23:35 10° NE
CZ-4 R/B 4.5 17:14:04 10° SW 17:16:42 16° W 17:19:22 10° NW
Cosmos 1975 4.4 17:12:53 10° SW 17:16:44 38° WNW 17:20:35 10° N
Cosmos 2082 Rocket 3.4 17:14:35 10° NNW 17:19:32 30° NNE 17:22:53 17° E
Cosmos 2034 Rocket 4.0 17:13:59 10° S 17:20:17 67° E 17:26:35 10° NNE
USA 186 3.1 17:18:31 10° SSW 17:21:29 39° W 17:24:35 10° NNW
MOS 1 Rocket 3.6 17:17:37 10° N 17:22:11 64° WNW 17:26:30 10° SSW
Cosmos 1937 Rocket 3.7 17:18:23 10° SW 17:23:38 74° WNW 17:28:52 10° NNE
SPOT 5 4.4 17:21:41 19° E 17:23:48 24° NE 17:28:01 10° N
Cosmos 1125 Rocket 4.1 17:21:39 10° SSE 17:26:26 35° ESE 17:31:14 10° NE
Cosmos 1805 3.8 17:25:30 30° SE 17:26:33 36° E 17:30:10 10° NNE
COSMOS 2406 3.6 17:21:35 10° NNW 17:27:08 50° NE 17:30:13 25° ESE
NOSS 8 (H) 4.0 17:25:23 10° SW 17:28:25 82° SE 17:30:29 19° NE
NOSS 8 (E) 4.4 17:25:30 10° WSW 17:28:32 68° NW 17:31:17 13° NE
Meteor 1-24 Rocket 3.8 17:23:25 10° N 17:28:46 54° ENE 17:31:59 24° SE
Cosmos 2297 Rocket 4.4 17:25:27 10° W 17:30:02 24° NNW 17:34:38 10° NNE
OBJECT-B 0.9 17:28:11 22° S 17:30:09 76° WSW 17:33:26 10° NNW
NOSS 2-2 (E) 3.2 17:28:23 10° SW 17:31:56 60° SE 17:36:12 10° NE
Cosmos 1674 2.7 17:28:28 10° NNW 17:32:21 84° W 17:34:52 21° S
FREGAT/IRIS 4.2 17:34:35 12° SSW 17:36:37 28° W 17:38:58 10° NNW
ATLAS 2AS CENTAUR R/B 3.9 17:37:35 24° ESE 17:37:35 24° ESE 17:43:21 10° ENE
ERS-1 Rocket 4.0 17:37:24 25° E 17:39:01 31° ENE 17:43:24 10° N
SL-14 R/B 3.5 17:35:59 10° N 17:39:48 50° ENE 17:40:43 40° ESE
NOSS 2-2 (D) 3.2 17:36:51 10° SSW 17:40:22 57° SE 17:44:32 10° NE
CZ-2C R/B 2.7 17:34:51 10° NNE 17:40:23 89° ESE 17:45:59 10° SSW
H-2A R/B 4.2 17:38:11 10° SW 17:42:12 24° W 17:46:20 10° NW
Cosmos 1733 3.7 17:42:25 38° E 17:42:25 38° E 17:45:55 10° NNE
Resurs 01 Rocket 1.6 17:41:42 27° SSE 17:44:10 85° ENE 17:48:39 10° NNW
CENTAUR R/B 3.3 17:37:46 10° NW 17:45:31 72° SW 17:51:21 23° SSE
Lacrosse 4 Rocket 2.5 17:44:46 10° NNW 17:48:26 31° NNE 17:49:36 26° ENE
Landsat 7 4.0 17:46:54 35° SE 17:48:36 55° ENE 17:53:17 10° N
KORONAS-FOTON 4.3 17:45:49 10° NNW 17:49:42 59° W 17:52:09 21° S
Cosmos 909 Rocket 4.5 17:42:50 10° NW 17:49:45 56° NNE 17:53:07 28° E
SJ-6B 4.4 17:46:54 10° SSW 17:50:16 31° W 17:53:41 10° NNW
ATLAS 3B R/B 2.8 17:45:06 10° NW 17:51:53 72° NNE 17:55:34 30° ESE
USA 238 DEB 4.5 17:46:08 10° NW 17:52:59 50° SW 17:58:10 19° SSE
USA 238 4.4 17:46:14 10° NW 17:53:05 51° SW 17:58:16 19° SSE
Cosmos 1634 Rocket 4.0 17:49:46 20° SSE 17:53:58 57° E 18:00:02 10° NNE
SPOT 1/Viking Rocket 3.7 17:53:07 36° ESE 17:54:58 54° ENE 18:00:01 10° N
Cosmos 1844 3.8 17:49:41 10° S 17:55:07 48° ESE 18:00:32 10° NE
Cosmos 2278 Rocket 4.3 17:58:55 11° ENE 17:58:55 11° ENE 17:59:18 10° ENE
ATLAS CENTAUR R/B 3.3 17:55:13 10° WNW 17:58:17 23° N 18:01:18 10° NE
Cosmos 2285 Rocket 4.0 17:52:21 10° S 17:58:28 55° ESE 18:04:39 10° NNE
Cosmos 1269 Rocket 4.0 17:53:24 10° NNW 17:58:45 89° WSW 18:01:04 35° SSE
Cosmos 1766 3.2 17:58:20 56° SE 17:58:49 62° E 18:02:44 10° NNE
Cosmos 2263 Rocket 3.1 17:54:52 10° WSW 18:00:17 49° NW 18:05:44 10° NNE
ARIANE 5 R/B 2.5 18:00:10 45° SSE 18:01:26 78° ENE 18:05:49 10° NNW
IGS 5A 3.4 18:00:40 52° SE 18:01:28 67° ENE 18:05:37 10° N
MetOp-B 4.1 17:59:48 32° SSE 18:02:25 86° ENE 18:07:49 10° NNW
Cosmos 1844 Rocket 2.5 18:01:43 10° SSW 18:07:14 67° ESE 18:12:50 10° NE
Cosmos 1455 Rocket 4.2 18:08:48 29° ENE 18:08:48 29° ENE 18:11:41 10° NNE
SJ 16-02 4.2 18:05:54 10° W 18:08:58 18° NW 18:12:03 10° N
Spot 2 Rocket 3.4 18:07:55 43° SE 18:09:33 75° ENE 18:14:37 10° NNW
Cosmos 1092 Rocket 4.3 18:04:30 10° NNW 18:10:35 64° W 18:15:35 16° S
Okean 1 Rocket 3.1 18:14:13 26° SSW 18:16:46 81° WNW 18:21:18 10° N
Cosmos 2026 Rocket 4.2 18:11:53 10° NNW 18:18:14 72° W 18:22:22 23° S
Lacrosse 5 rocket 1.6 18:14:07 10° W 18:18:32 75° N 18:19:36 51° ENE
Cosmos 1340 Rocket 3.5 18:19:45 40° NE 18:19:45 40° NE 18:22:35 10° NNE
Meteor 1-15 Rocket 4.4 18:13:05 10° SSW 18:18:43 73° WNW 18:24:29 10° NNE
Meteor 2-19 Rocket 4.4 18:13:20 10° N 18:19:30 72° ENE 18:21:36 43° SSE
Cosmos 1833 Rocket 2.6 18:18:54 10° NNW 18:24:37 81° NE 18:26:05 51° SE
NOSS 2-2 (C) 3.4 18:21:18 10° WSW 18:24:56 75° NW 18:28:16 17° NE
CZ-2C R/B 3.7 18:20:31 10° NNE 18:24:58 78° WNW 18:27:16 29° SSW
Cosmos 2298 Rocket 4.4 18:21:51 10° SW 18:27:10 67° WNW 18:32:30 10° NNE
Cosmos 1461 4.3 18:24:57 10° NW 18:29:21 36° NNE 18:30:43 30° ENE
Cosmos 2251 Rocket 3.6 18:26:07 10° NNW 18:31:29 61° ENE 18:32:20 53° E
USA 234 3.2 18:31:49 18° ENE 18:36:40 56° SSE 18:43:06 10° SW
H-2A R/B 3.9 18:33:39 10° NNE 18:37:01 52° NE 18:37:01 52° NE
Cosmos 2279 Rocket 3.9 18:36:18 44° SSE 18:38:21 73° E 18:44:37 10° NNE
Cosmos 2142 Rocket 4.4 18:36:37 36° S 18:39:24 82° E 18:45:40 10° NNE
Terra 2.0 18:40:20 55° ENE 18:40:21 55° ENE 18:45:01 10° N
Cosmos 1892 Rocket 3.9 18:38:07 10° NNW 18:42:23 57° W 18:42:56 52° SW
Cosmos 1626 3.4 18:39:29 10° NNW 18:42:52 34° W 18:43:18 33° WSW
CARTOSAT-1 3.6 18:52:23 77° NW 18:52:23 77° NW 18:56:29 10° NNW
SPOT 5 2.9 19:00:55 75° SSW 19:01:19 82° WSW 19:06:41 10° NNW
NOSS 3-4 (A) 4.3 19:06:43 34° ENE 19:06:43 34° ENE 19:10:28 10° NE
NOSS 3-4 (C) 4.4 19:06:53 33° ENE 19:06:53 33° ENE 19:10:34 10° NE
Cosmos 2082 Rocket 2.0 18:58:40 10° NW 19:04:20 89° WSW 19:04:43 79° SSE
Cosmos 1125 Rocket 4.2 19:03:10 10° SW 19:08:23 53° NW 19:13:36 10° NNE
Okean 1-7 Rocket 4.4 19:04:35 10° NNW 19:08:58 45° W 19:09:15 45° WSW
Exosat Rocket 4.0 19:04:33 10° SW 19:09:43 58° NW 19:14:45 10° NNE
COSMOS 2406 3.9 19:06:05 10° NW 19:11:26 44° WSW 19:12:17 41° SW
Cosmos 1726 4.4 19:19:59 20° NNE 19:19:59 20° NNE 19:21:12 10° NNE
SME Rocket 4.1 19:11:01 10° NNE 19:16:39 51° ENE 19:16:39 51° ENE
ERS-1 Rocket 3.3 19:17:24 56° WSW 19:17:36 57° WSW 19:22:35 10° NNW
Cosmos 2266 Rocket 3.9 19:14:09 10° NNW 19:20:12 73° W 19:21:01 64° SSW
Cosmos 614 Rocket 4.1 19:15:47 10° NNW 19:20:34 67° NNE 19:20:34 67° NNE
Resurs 01 Rocket 4.1 19:19:16 13° WSW 19:21:17 16° W 19:24:07 10° NW
Cosmos 2098 Rocket 4.5 19:14:19 10° NNW 19:21:34 63° W 19:23:23 47° SSW
Meteor 2-21 4.3 19:16:38 10° NNW 19:22:52 84° ENE 19:23:17 78° SE
Cosmos 1809 Rocket 4.3 19:17:32 10° NNW 19:23:46 87° W 19:24:19 76° S
Cosmos 1602 Rocket 4.3 19:19:51 10° NNW 19:23:13 52° NNW 19:23:13 52° NNW
Cosmos 1953 4.2 19:28:08 25° NNE 19:28:08 25° NNE 19:29:53 10° NNE
Cosmos 1655 Rocket 4.4 19:20:00 10° NNW 19:26:06 56° W 19:27:33 46° SW
Meteor 1-21 Rocket 4.3 19:20:38 10° NNW 19:26:18 67° W 19:26:43 65° SW
Lacrosse 4 Rocket 2.8 19:23:22 10° NW 19:25:54 35° WNW 19:25:54 35° WNW
ATLAS 2AS CENTAUR R/B 2.9 19:24:48 45° SSW 19:27:23 69° SE 19:35:07 10° NE
Nadezhda 2 Rocket 4.4 19:31:04 10° N 19:37:13 76° ENE 19:37:13 76° ENE
ATLAS CENTAUR R/B 3.4 19:35:08 10° NW 19:37:32 22° N 19:37:32 22° N
Cosmos 2278 Rocket 2.8 19:40:44 46° NE 19:40:44 46° NE 19:44:42 10° NE
ATLAS 3B R/B 3.2 19:35:59 10° NW 19:42:23 44° SW 19:42:49 44° SW
Cosmos 1455 Rocket 4.3 19:45:54 38° WNW 19:45:54 38° WNW 19:49:41 10° N
Meteor 2-10 4.3 19:48:52 68° WNW 19:48:52 68° WNW 19:54:09 10° NNE
Cosmos 909 Rocket 4.4 19:43:40 10° NW 19:50:00 50° WSW 19:50:00 50° WSW
NOSS 3-1 (C) 4.4 19:44:02 10° WNW 19:50:35 54° NNE 19:54:08 31° E
Cosmos 1844 Rocket 4.1 19:46:24 10° WSW 19:51:33 36° NW 19:56:45 10° NNE
Meteor 1-11 4.4 19:51:48 10° NNW 19:56:45 70° NNW 19:56:45 70° NNW
Lacrosse 5 rocket 3.4 19:53:21 10° WNW 19:55:13 25° WNW 19:55:13 25° WNW
Meteor 2-16 Rocket 4.5 20:00:28 10° NNW 20:06:18 74° WNW 20:06:18 74° WNW
Cosmos 1833 Rocket 4.3 20:03:30 10° NW 20:07:46 25° W 20:07:46 25° W
Cosmos 1461 4.5 20:04:09 10° NW 20:07:05 37° NW 20:07:05 37° NW
Cosmos 407 Rocket 4.2 20:06:09 10° NNW 20:09:56 49° NW 20:09:56 49° NW
Cosmos 1745 Rocket 4.1 20:06:33 10° N 20:12:07 64° NE 20:12:07 64° NE
Terra 3.5 20:19:13 26° WNW 20:19:13 26° WNW 20:22:29 10° NW
USA 234 3.1 20:13:27 10° ENE 20:20:02 88° NNW 20:26:37 10° W
Cosmos 1140 Rocket 4.4 20:18:05 10° NNW 20:21:42 45° NW 20:21:42 45° NW
MOS 1-B Rocket 4.4 20:22:22 10° NNE 20:28:58 76° WNW 20:29:46 69° WSW
ALOS 2 4.3 20:33:26 31° N 20:33:26 31° N 20:35:48 10° NNW
SL-16 R/B 4.5 20:42:08 16° ENE 20:44:48 21° NE 20:49:13 10° N
Cosmos 1709 Rocket 4.2 20:41:32 10° N 20:46:53 63° NNE 20:46:53 63° NNE
Cosmos 2082 Rocket 4.1 20:43:37 10° NW 20:46:33 20° W 20:46:33 20° W
USA 229 DEB 4.0 20:41:32 10° NW 20:48:35 66° NNE 20:49:59 55° ENE
USA 229 4.0 20:41:38 10° NW 20:48:40 66° NNE 20:50:06 55° ENE
COSMOS 2455 3.5 20:52:44 48° NE 20:52:44 48° NE 20:57:01 10° NE
Cosmos 1943 Rocket 3.6 20:54:15 28° ENE 20:54:15 28° ENE 20:57:03 10° NE
S3M 4.2 20:53:53 62° NNE 20:53:53 62° NNE 20:59:02 10° NNE
NOSS 3-4 (A) 3.9 20:54:06 54° WNW 20:55:06 61° NNW 21:01:46 10° NE
NOSS 3-4 (C) 3.9 20:54:16 55° WNW 20:55:13 61° NNW 21:01:52 10° NE
NOSS 3-1 (A) 4.1 20:53:45 10° NW 21:00:36 65° NNE 21:02:58 46° E
Cosmos 2297 Rocket 4.1 20:57:30 10° NNW 21:02:13 26° NNE 21:05:21 17° ENE
Cosmos 2297 4.5 21:12:02 48° NNE 21:12:02 48° NNE 21:16:04 10° NE
Cosmos 2315 Rocket 4.4 21:13:48 55° NE 21:13:48 55° NE 21:19:03 10° NNE
CZ-4C R/B 3.2 21:16:51 44° NE 21:16:51 44° NE 21:21:16 10° NE
Cosmos 2369 Rocket 3.5 21:17:31 31° ENE 21:17:31 31° ENE 21:20:41 10° NE
Thor Agena Rocket 4.4 21:12:53 10° NNE 21:16:46 48° N 21:16:46 48° N
ATLAS 2AS CENTAUR R/B 3.4 21:11:59 15° WSW 21:18:45 60° NNW 21:26:21 10° ENE
Cosmos 2184 Rocket 4.5 21:15:30 10° N 21:21:05 52° NE 21:21:05 52° NE
Cosmos 2278 Rocket 3.5 21:22:33 32° WNW 21:23:36 35° NW 21:28:48 10° NNE
Cosmos 2056 Rocket 4.5 21:43:24 46° N 21:43:24 46° N 21:47:12 10° NNE
NOSS 3-1 (C) 3.9 21:34:56 10° NW 21:41:28 76° W 21:41:28 76° W
Cosmos 2227 Rocket 3.4 21:54:34 10° NNW 21:59:50 37° NE 22:01:46 29° E
Cosmos 1452 Rocket 4.5 22:03:25 44° NE 22:03:25 44° NE 22:07:00 10° NNE
USA 234 3.2 21:56:32 10° E 22:03:05 84° N 22:09:40 10° WNW
Timation 2 Rocket 4.2 21:58:05 10° NW 22:04:09 67° NE 22:04:09 67° NE
Meteor 2-3 Rocket 4.2 22:02:13 10° NNW 22:06:32 55° N 22:06:32 55° N
Cosmos 2219 3.9 22:08:03 10° NNW 22:13:36 51° NE 22:14:03 50° ENE
ADEOS II 4.5 22:13:02 10° NE 22:15:26 13° E 22:16:36 12° E
Cosmos 2154 Rocket 4.1 22:09:25 10° N 22:15:13 74° NNE 22:15:13 74° NNE
Cosmos 2074 Rocket 4.3 22:21:02 10° NNW 22:26:18 56° NW 22:26:18 56° NW
SL-16 R/B 2.6 22:27:13 68° E 22:27:29 68° ENE 22:33:38 10° NNW
Cosmos 2341 Rocket 4.3 22:21:23 10° N 22:27:43 61° ENE 22:28:12 59° E
Cosmos 968 Rocket 4.2 22:24:06 10° NNW 22:28:23 53° N 22:28:23 53° N
Cosmos 1943 Rocket 2.9 22:35:46 47° NW 22:35:46 47° NW 22:40:56 10° NNE
COSMOS 2455 4.0 22:35:52 33° WNW 22:37:29 38° NNW 22:43:09 10° NE
Cosmos 1656 Rocket 4.0 22:40:20 63° NNE 22:40:20 63° NNE 22:45:00 10° NE
USA 229 DEB 4.5 22:32:38 10° NW 22:37:21 41° WNW 22:37:21 41° WNW
CZ-2D R/B 3.1 22:34:43 10° NNE 22:39:26 37° E 22:39:26 37° E
USA 229 4.5 22:32:44 10° NW 22:37:28 41° WNW 22:37:28 41° WNW
ATLAS 5 CENTAUR R/B 3.7 22:44:53 20° E 22:44:53 20° E 22:46:56 10° ENE
Cosmos 2297 Rocket 2.4 22:41:34 10° NNW 22:47:06 70° NE 22:47:06 70° NE
NOSS 3-1 (A) 4.2 22:44:40 10° NW 22:50:19 52° W 22:50:19 52° W
Cosmos 2263 4.5 22:53:55 62° NW 22:53:55 62° NW 22:59:28 10° NNE
Resurs 1-4 Rocket 2.7 22:48:57 10° NNE 22:53:50 48° E 22:53:50 48° E
SL-19 R/B 4.4 22:51:41 10° NNE 22:56:20 63° ENE 22:56:20 63° ENE
Nadezhda 1 Rocket 3.8 22:58:04 82° NW 22:58:04 82° NW 23:04:03 10° N
Cosmos 2369 Rocket 2.8 22:59:18 47° NW 22:59:23 47° NW 23:04:53 10° NNE
Cosmos 1354 Rocket 4.3 22:55:09 10° NNW 23:00:17 64° NE 23:00:17 64° NE
Gbstr 26 Del rocket 4.4 23:02:21 65° S 23:02:41 66° S 23:10:28 10° E
CZ-4C R/B 3.2 23:02:00 37° WNW 23:03:53 48° NNW 23:10:36 10° ENE
NOSS 2-2 (E) 4.4 23:00:45 10° NW 23:05:40 70° NNE 23:12:31 10° ESE
USA 267 4.5 23:02:02 10° ENE 23:07:19 25° SE 23:07:36 25° SE
ATLAS 2AS CENTAUR R/B 3.8 23:03:24 10° WNW 23:11:01 48° N 23:18:12 10° ENE
SJ 16-02 4.3 23:08:33 10° N 23:11:14 16° NE 23:13:55 10° ENE
Cosmos 1503 Rocket 4.3 23:08:35 10° NNW 23:12:55 62° NNW 23:12:55 62° NNW
NOSS 2-2 (D) 4.4 23:09:37 12° NW 23:14:05 68° NNE 23:20:46 10° ESE
Cosmos 2263 Rocket 4.0 23:12:27 10° NNW 23:17:25 30° NNE 23:22:23 10° E
Helios 1B rocket 4.0 23:16:18 10° N 23:18:47 31° NNW 23:18:47 31° NNW
Cosmos 405 Rocket 4.1 23:16:40 10° N 23:19:57 38° NE 23:19:57 38° NE
IRAS Rocket 4.2 23:22:14 71° WNW 23:22:14 71° WNW 23:27:28 10° NNW
ATLAS CENTAUR R/B 4.3 23:07:30 18° WSW 23:22:55 89° NNW 23:29:57 10° ENE
Cosmos 1818 4.4 23:24:54 40° ESE 23:24:54 40° ESE 23:29:58 10° NE
SL-8 Rocket 3.8 23:20:48 10° NNW 23:27:06 78° W 23:27:37 73° SW
Cosmos 2221 3.3 23:29:14 47° N 23:29:14 47° N 23:32:24 10° N
COBE Rocket 4.5 23:31:38 50° NW 23:31:38 50° NW 23:35:38 10° NNW
Cosmos 2218 Rocket 3.9 23:31:54 10° NNW 23:38:18 77° W 23:39:21 63° SSW
Meteor 2-2 Rocket 4.1 23:40:08 74° SW 23:40:38 83° WNW 23:46:30 10° NNE
Cosmos 2366 rocket 3.9 23:34:36 10° NNW 23:40:54 77° W 23:41:56 63° SSW
Cosmos 1842 Rocket 4.3 23:43:34 45° NNW 23:43:34 45° NNW 23:47:05 10° N
Sich 1 3.7 23:38:49 10° NNW 23:42:00 49° NNW 23:42:00 49° NNW
Cosmos 2227 Rocket 2.3 23:38:40 10° NW 23:43:30 58° WNW 23:43:30 58° WNW
Cosmos 1777 Rocket 4.3 23:41:02 10° NNW 23:46:17 64° ENE 23:51:28 10° SE
USA 234 3.1 23:39:49 10° SE 23:46:19 66° SSW 23:50:26 24° WNW
Cosmos 292 Rocket 3.9 23:48:09 61° NW 23:48:09 61° NW 23:52:39 10° NNE
Cosmos 1656 4.3 23:49:11 39° SSE 23:50:25 46° ESE 23:55:40 10° NE
Cosmos 1992 Rocket 4.2 23:50:18 54° SSE 23:51:04 60° ESE 23:56:14 10° NNE
Lacrosse 5 3.7 23:53:36 18° SE 23:54:17 19° SE 23:57:45 10° E
